Location: �pagny
(49.4612°N, 3.2405°E)
Time: 08:39:43
(UTC+00:00)

Daily predictions for brighter satellites

Satellite Brightness Start Highest point End
(mag) Time Altitude Azimuth Time Altitude Azimuth Time Altitude Azimuth
Unknown 3.9 17:16:04 10° W 17:20:12 64° NNW 17:24:20 10° ENE
Unknown 3.9 17:18:19 10° W 17:22:26 63° NNW 17:26:34 10° ENE
Cosmos 1844 3.8 17:17:38 10° SSW 17:23:22 84° ESE 17:29:12 10° NNE
Cosmos 1726 2.6 17:20:44 10° SSE 17:24:07 37° E 17:27:31 10° NNE
Unknown 3.9 17:20:05 10° W 17:24:13 61° NNW 17:28:20 10° ENE
Unknown 3.2 17:22:00 10° WNW 17:25:24 65° NNE 17:28:47 10° E
Abrixas rocket 3.6 17:22:57 10° SSW 17:25:29 23° SSE 17:28:01 10° E
SKYMED 2 4.2 17:21:40 10° NNE 17:25:38 33° E 17:29:34 10° SSE
Unknown 4.0 17:23:26 10° W 17:27:32 60° NNW 17:31:40 10° ENE
Unknown 4.0 17:23:34 10° W 17:27:41 61° NNW 17:31:48 10° ENE
Unknown 3.9 17:24:58 10° WNW 17:28:37 48° N 17:32:10 10° E
YAOGAN 1 3.1 17:25:05 10° SE 17:29:02 36° ENE 17:33:00 10° N
Unknown 4.0 17:24:58 10° W 17:29:05 60° NNW 17:33:12 10° ENE
FALCON 9 DEB 3.3 17:27:23 10° WNW 17:30:50 63° NNE 17:34:14 10° E
Cosmos 2084 4.1 17:27:15 10° WSW 17:31:45 60° NW 17:36:10 10° NE
Cosmos 2228 3.0 17:27:27 10° S 17:31:50 85° E 17:36:11 10° N
Unknown 4.0 17:28:12 10° W 17:32:19 60° NNW 17:36:21 10° ENE
CSL-04 Rocket 4.0 17:27:46 10° SE 17:33:02 48° ENE 17:38:16 10° N
Lacrosse 5 2.0 17:28:44 10° NW 17:33:46 62° NNE 17:38:47 10° ESE
Cosmos 1470 4.4 17:31:09 10° SW 17:34:53 38° WNW 17:38:38 10° N
Unknown 4.0 17:31:38 10° W 17:35:44 58° N 17:39:37 11° ENE
H-2A R/B 3.9 17:33:40 10° ENE 17:35:44 12° NE 17:37:49 10° NNE
Cosmos 2263 Rocket 4.3 17:31:35 10° W 17:35:59 23° NW 17:40:23 10° N
Unknown 4.0 17:33:20 10° W 17:37:26 58° NNW 17:41:15 12° ENE
Envisat 3.0 17:32:29 10° SSE 17:37:33 77° ENE 17:42:39 10° NNW
Cosmos 1726 Rocket 3.6 17:33:21 10° S 17:37:45 89° W 17:42:08 10° N
Unknown 4.0 17:35:01 10° W 17:39:06 57° N 17:42:51 12° ENE
Shenzhou-11 Module 4.0 17:37:10 10° SW 17:39:14 19° S 17:41:18 10° SE
Cosmos 921 Rocket 3.1 17:35:12 10° SSW 17:39:42 89° WNW 17:44:11 10° NNE
CENTAUR R/B 4.2 17:39:10 10° ESE 17:40:29 11° E 17:40:48 11° E
Unknown 4.0 17:36:41 10° W 17:40:47 57° N 17:44:27 13° ENE
Lacrosse 5 rocket 4.2 17:38:52 10° W 17:40:51 14° SW 17:42:53 10° SSW
Unknown 3.2 17:40:28 10° WNW 17:43:58 66° NNE 17:46:48 15° E
Unknown 4.0 17:40:03 10° W 17:44:08 56° N 17:47:39 14° ENE
Unknown 4.0 17:41:31 10° WNW 17:44:28 41° SSW 17:47:27 10° SE
Unknown 4.0 17:41:46 10° W 17:45:51 55° N 17:49:18 14° ENE
Cosmos 1356 3.3 17:42:35 10° S 17:45:59 68° E 17:49:25 10° NNE
Falcon 9 debris 3.1 17:43:23 10° WNW 17:46:51 78° NNE 17:49:37 15° ESE
Meteor 2-10 3.9 17:42:06 10° S 17:47:06 66° E 17:52:06 10° NNE
Unknown 4.0 17:43:22 10° W 17:47:27 55° N 17:50:50 14° ENE
Cosmos 1328 3.8 17:44:47 10° N 17:48:47 88° W 17:52:44 10° S
Unknown 4.1 17:45:00 10° W 17:49:04 55° N 17:52:23 15° ENE
Cosmos 1833 Rocket 2.7 17:44:10 10° NNW 17:49:47 67° ENE 17:55:23 10° SE
Unknown 4.1 17:45:48 10° W 17:49:52 54° N 17:53:10 15° ENE
Unknown 4.1 17:48:09 10° W 17:52:14 55° N 17:55:26 16° ENE
Unknown 4.1 17:51:32 10° W 17:55:37 54° N 17:58:39 17° ENE
YAOGAN 6 2.5 17:52:14 10° SSE 17:55:52 78° ENE 17:59:30 10° N
Cosmos 1939 Rocket 3.5 17:52:52 10° SE 17:56:30 34° ENE 18:00:13 10° N
Unknown 3.9 17:53:00 10° WNW 17:56:45 49° N 17:59:13 19° ENE
Unknown 4.1 17:53:11 10° W 17:57:16 54° N 18:00:14 17° ENE
USA 116 3.8 17:54:20 10° NNE 17:57:20 36° E 18:00:32 10° S
Unknown 4.1 17:55:06 10° W 17:59:10 53° N 18:02:03 18° ENE
Unknown 4.1 17:56:32 10° W 18:00:36 53° N 18:03:26 19° ENE
Cosmos 2058 Rocket 3.2 17:56:43 10° SSW 18:01:04 79° W 18:05:27 10° N
USA 238 DEB 4.1 17:55:29 10° S 18:01:38 41° ESE 18:08:00 10° NE
USA 238 4.1 17:55:37 10° S 18:01:46 40° ESE 18:08:07 10° NE
Unknown 4.1 17:58:10 10° W 18:02:14 53° N 18:05:00 19° ENE
Unknown 4.1 18:01:34 10° W 18:05:38 52° N 18:08:15 20° ENE
Unknown 3.1 18:02:28 10° WNW 18:06:00 87° NNE 18:08:00 24° ESE
COBE Rocket 4.2 18:01:15 10° N 18:06:26 79° WNW 18:11:30 10° SSW
Unknown 4.1 18:03:13 10° W 18:07:17 52° N 18:09:49 21° ENE
CZ-2D R/B 3.4 18:04:37 10° SE 18:08:20 48° ENE 18:12:07 10° N
Unknown 4.1 18:04:54 10° W 18:08:57 52° N 18:11:26 22° ENE
Cosmos 1300 3.5 18:06:11 10° SSE 18:09:29 28° E 18:12:48 10° NNE
SJ 16-02 2.7 18:06:47 10° N 18:10:03 20° NE 18:10:34 20° ENE
Unknown 4.1 18:06:33 10° W 18:10:37 52° N 18:13:01 22° ENE
Cosmos 1461 3.0 18:09:24 10° NW 18:13:28 73° SW 18:17:40 10° SSE
COSMO-SKYMED 1 2.6 18:09:30 10° NNE 18:13:52 83° WNW 18:18:12 10° SSW
Unknown 4.1 18:09:58 10° W 18:14:03 51° N 18:16:17 24° ENE
Unknown 3.9 18:10:45 10° WNW 18:14:35 51° N 18:16:22 27° ENE
Unknown 4.1 18:11:07 10° W 18:15:11 51° N 18:17:22 25° ENE
Unknown 4.1 18:11:48 10° W 18:15:52 51° N 18:18:00 25° ENE
Unknown 4.1 18:12:09 10° WNW 18:16:07 50° N 18:18:05 26° ENE
Cosmos 1339 Rocket 4.4 18:10:34 10° S 18:16:38 80° E 18:22:50 10° NNE
Unknown 4.1 18:13:29 10° W 18:17:33 51° N 18:19:38 26° ENE
Cosmos 2082 Rocket 2.1 18:12:45 10° NNW 18:18:31 76° ENE 18:24:12 10° SSE
Unknown 4.1 18:15:42 10° WNW 18:19:43 50° N 18:21:37 27° ENE
CSL-04 Debris 4.3 18:14:34 10° SSE 18:20:02 78° WSW 18:25:33 10° NNW
Ariane Rocket 3.0 18:15:13 10° SSE 18:20:12 57° ENE 18:25:13 10° N
Cosmos 1459 Rocket 4.2 18:14:18 10° N 18:20:16 45° ENE 18:26:17 10° SE
Unknown 4.1 18:16:38 10° W 18:20:41 51° N 18:22:39 27° ENE
Unknown 4.1 18:19:58 10° W 18:24:02 51° N 18:25:50 29° ENE
NOSS 3-2 (A) 3.7 18:19:55 10° S 18:25:23 45° ESE 18:29:49 18° NE
CZ-4 R/B 2.4 18:21:22 10° S 18:25:27 50° W 18:29:36 10° NNW
Cosmos 2084 Rocket 3.4 18:21:00 10° NW 18:25:27 72° NE 18:27:37 29° ESE
Unknown 4.1 18:21:37 10° WNW 18:25:41 51° N 18:27:25 30° ENE
ATLAS CENTAUR R/B 3.6 18:23:18 10° NNW 18:25:56 15° NNE 18:27:18 13° NE
Unknown 4.1 18:23:18 10° WNW 18:27:22 51° N 18:29:02 31° ENE
Unknown 4.1 18:24:57 10° WNW 18:29:00 51° N 18:30:35 32° ENE
Cosmos 1605 Rocket 4.3 18:22:56 10° NNW 18:29:05 68° W 18:35:08 10° S
Cosmos 1844 Rocket 4.4 18:26:53 10° WSW 18:31:51 31° NW 18:36:49 10° NNE
NOSS 3-3 (A) 4.5 18:24:33 10° NW 18:31:58 88° NE 18:39:06 15° SE
NOSS 3-3 (C) 4.5 18:24:38 10° NW 18:32:04 88° NE 18:39:08 15° SE
HJ-1C 3.4 18:32:27 52° E 18:32:39 53° ENE 18:35:57 10° N
Cosmos 44 4.3 18:29:02 10° S 18:32:32 27° SE 18:32:32 27° SE
Cosmos 1937 Rocket 4.0 18:30:46 10° N 18:35:32 37° ENE 18:36:31 34° E
Unknown 4.1 18:31:37 10° WNW 18:35:40 51° N 18:36:58 36° NE
Unknown 4.1 18:33:19 10° WNW 18:37:23 51° N 18:38:36 37° NE
Cosmos 990 Rocket 4.2 18:32:45 10° NNW 18:37:48 47° ENE 18:39:26 36° ESE
Okean 3 Rocket 4.0 18:34:20 10° N 18:38:39 41° ENE 18:38:58 41° E
Unknown 4.1 18:34:56 10° WNW 18:38:59 51° N 18:40:08 38° NE
Resurs 01 Rocket 3.8 18:42:28 13° NNE 18:42:28 13° NNE 18:43:20 10° NNE
Unknown 4.1 18:36:37 10° WNW 18:40:40 51° N 18:41:45 39° NE
Unknown 4.1 18:38:17 10° WNW 18:42:20 51° N 18:43:21 40° NE
Cosmos 1727 Rocket 3.9 18:36:18 10° S 18:42:29 86° E 18:48:42 10° N
In-Cosmos 22 Rocket 4.1 18:37:59 10° N 18:43:20 60° ENE 18:46:48 23° SSE
Unknown 4.1 18:41:38 10° WNW 18:45:41 51° N 18:46:33 43° NE
Starlink (trailer) 4.0 18:43:17 10° WNW 18:47:20 51° N 18:48:08 44° NE
Cosmos 2173 Rocket 3.9 18:41:11 10° N 18:47:28 69° ENE 18:53:36 10° SSE
Cosmos 1076 Rocket 3.6 18:43:44 10° NNW 18:48:08 80° W 18:52:28 10° S
Unknown 4.0 18:44:56 10° WNW 18:49:00 51° N 18:49:42 45° NE
NOSS 3-2 (C) 3.7 18:45:01 10° S 18:50:29 44° ESE 18:51:57 38° E
Unknown 4.0 18:46:38 10° WNW 18:50:42 51° N 18:51:21 46° NE
SJ-6B 4.3 18:52:53 23° NNE 18:52:53 23° NNE 18:54:36 10° N
Cosmos 1802 Rocket 4.0 18:46:39 10° N 18:53:04 65° ENE 18:57:43 19° SSE
ADEOS Rocket 3.8 18:46:32 10° NNE 18:53:39 39° E 19:00:16 10° SSE
ATLAS 5 CENTAUR R/B 3.8 18:50:30 10° WNW 18:54:08 22° NNW 18:57:39 12° NNE
Cosmos 1812 Rocket 3.8 18:51:00 10° SSW 18:55:26 72° W 18:59:56 10° N
Unknown 3.9 18:52:39 10° WNW 18:56:43 52° N 18:57:05 50° NNE
Unknown 3.9 18:52:47 10° WNW 18:56:50 52° N 18:57:11 50° NNE
Unknown 4.0 18:53:15 10° WNW 18:57:19 52° N 18:57:40 50° NNE
SPOT 3 Rocket 3.7 18:57:17 48° E 18:57:45 50° ENE 19:02:47 10° N
Unknown 3.9 18:56:02 10° WNW 19:00:08 53° N 19:00:21 52° NNE
Cosmos 2123 Rocket 4.4 19:01:06 41° ENE 19:01:06 41° ENE 19:06:24 10° NNE
Cosmos 2278 Rocket 2.8 18:55:13 10° SW 19:00:49 58° NW 19:06:27 10° NNE
Abrixas rocket 3.5 18:58:01 10° WSW 18:59:58 35° WSW 18:59:58 35° WSW
Unknown 4.4 18:59:01 10° WNW 19:02:08 33° SW 19:02:09 33° SW
Unknown 4.0 18:58:20 10° WNW 19:02:24 53° N 19:02:32 53° NNE
Cosmos 2297 3.7 18:57:51 10° S 19:03:25 57° ESE 19:04:47 45° ENE
Unknown 4.0 19:00:06 10° WNW 19:04:11 54° N 19:04:14 54° N
Unknown 3.6 19:03:08 10° WNW 19:06:23 65° WNW 19:06:23 65° WNW
Cosmos 2058 3.2 19:03:12 10° NNW 19:07:26 69° W 19:08:58 37° SSW
Unknown 4.0 19:03:26 10° WNW 19:07:25 54° N 19:07:25 54° N
Unknown 4.0 19:03:34 10° WNW 19:07:33 54° N 19:07:33 54° N
FALCON 9 DEB 4.5 19:04:36 10° WNW 19:07:36 35° SW 19:07:36 35° SW
Cosmos 1725 Rocket 4.0 19:02:44 10° N 19:08:57 57° ENE 19:10:07 50° ESE
Unknown 4.0 19:04:58 10° WNW 19:08:54 54° N 19:08:54 54° N
Cosmos 1000 Rocket 4.3 19:03:22 10° S 19:09:32 76° E 19:15:49 10° NNE
Unknown 4.1 19:08:12 10° WNW 19:12:00 53° N 19:12:00 53° N
Cosmos 2151 3.6 19:08:34 10° N 19:11:41 45° N 19:11:41 45° N
Cosmos 2100 Rocket 4.1 19:07:05 10° NNW 19:13:17 75° W 19:19:24 10° S
H-2A R/B 2.1 19:14:06 59° ENE 19:14:06 59° ENE 19:19:24 10° N
Unknown 4.2 19:11:37 10° WNW 19:15:16 52° NNW 19:15:16 52° NNW
Lacrosse 5 3.0 19:11:55 10° WNW 19:16:37 38° SW 19:18:16 30° S
Unknown 4.2 19:13:19 10° WNW 19:16:54 51° NNW 19:16:54 51° NNW
Unknown 4.2 19:14:59 10° WNW 19:18:30 51° NNW 19:18:30 51° NNW
ATLAS 3B R/B 2.8 19:14:10 10° SSW 19:19:45 47° SE 19:19:45 47° SE
Unknown 4.3 19:16:40 10° WNW 19:20:06 50° NNW 19:20:06 50° NNW
ARGOS 3.2 19:23:54 64° NE 19:23:54 64° NE 19:28:57 10° N
Cosmos 1892 4.5 19:19:58 10° N 19:21:41 25° N 19:21:41 25° N
Unknown 4.4 19:20:01 10° WNW 19:23:18 48° NW 19:23:18 48° NW
Cosmos 1898 Rocket 3.6 19:19:13 10° NNW 19:24:30 73° WSW 19:25:34 55° S
Unknown 4.5 19:21:43 10° WNW 19:24:57 47° NW 19:24:57 47° NW
CENTAUR R/B 2.8 19:23:30 10° SSW 19:28:05 49° SSE 19:28:05 49° SSE
Cosmos 2016 Rocket 4.0 19:25:41 10° N 19:32:00 83° W 19:34:31 40° S
SL-08 R/B 4.3 19:33:24 10° N 19:39:33 85° W 19:40:27 67° S
SJ 16-02 2.7 19:44:42 10° NNW 19:47:34 37° NW 19:47:34 37° NW
USA 238 DEB 4.1 19:45:44 10° WSW 19:52:24 59° NW 19:55:39 32° NNE
USA 238 4.1 19:45:51 10° WSW 19:52:30 59° NW 19:55:43 32° NNE
CZ-2C R/B 3.8 20:03:09 54° NNW 20:03:09 54° NNW 20:07:31 10° NNW
Cosmos 2082 Rocket 4.5 19:57:55 10° NW 20:01:58 20° W 20:05:59 10° SW
ATLAS CENTAUR R/B 3.8 20:01:55 10° NNW 20:03:29 19° NNW 20:03:29 19° NNW
NOSS 3-2 (A) 4.2 20:10:23 10° WSW 20:16:12 50° NW 20:17:15 46° N
Resurs 01 Rocket 4.2 20:20:03 16° NNW 20:20:03 16° NNW 20:21:00 10° NNW
ADEOS Rocket 4.0 20:31:52 10° N 20:39:21 55° WNW 20:46:20 10° SW
ATLAS 5 CENTAUR R/B 4.3 20:37:03 10° NW 20:39:10 17° NNW 20:39:10 17° NNW
H-2A R/B 4.2 20:54:44 23° WNW 20:54:44 23° WNW 20:58:11 10° NW
ATLAS 3B R/B 4.5 21:04:54 10° WSW 21:07:05 21° WSW 21:07:05 21° WSW
